Location: Unspecified
(47.1121°N, 116.3927°W)
Time: 19:59:30
(UTC-07:00)

Resurs 1-4 Rocket - Visible Passes

Search period start: 23 March 2019 00:00
Search period end: 02 April 2019 00:00
Orbit: 800 x 813 km, 98.6° (Epoch: 22 March)

Date Brightness Start Highest point End Pass type
(mag) Time Alt. Az. Time Alt. Az. Time Alt. Az.
23 Mar 3.5 02:50:11 10° NNE 02:53:05 34° N 02:53:05 34° N visible
23 Mar 4.0 04:31:42 10° NNW 04:34:10 15° NW 04:34:10 15° NW visible
24 Mar 3.8 02:25:38 10° NNE 02:28:19 30° NNE 02:28:19 30° NNE visible
24 Mar 3.7 04:06:18 10° N 04:09:24 21° NW 04:09:24 21° NW visible
25 Mar 4.1 02:01:15 10° NNE 02:03:32 23° NE 02:03:32 23° NE visible
25 Mar 3.4 03:41:15 10° N 03:44:37 29° NW 03:44:37 29° NW visible
26 Mar 4.5 01:37:09 10° NE 01:38:45 17° NE 01:38:45 17° NE visible
26 Mar 3.2 03:16:23 10° N 03:19:50 37° NNW 03:19:50 37° NNW visible
27 Mar 4.8 01:13:33 10° NE 01:13:58 11° ENE 01:13:58 11° ENE visible
27 Mar 3.2 02:51:41 10° NNE 02:55:04 41° N 02:55:04 41° N visible
27 Mar 4.0 04:33:16 10° NNW 04:36:00 14° NW 04:36:09 14° WNW visible
28 Mar 3.5 02:27:07 10° NNE 02:30:17 36° NE 02:30:17 36° NE visible
28 Mar 3.6 04:07:50 10° NNW 04:11:22 21° NW 04:11:22 21° NW visible
29 Mar 3.9 02:02:43 10° NNE 02:05:30 27° NE 02:05:30 27° NE visible
29 Mar 3.2 03:42:45 10° N 03:46:35 31° NW 03:46:35 31° NW visible
30 Mar 4.3 01:38:35 10° NE 01:40:43 19° ENE 01:40:43 19° ENE visible
30 Mar 2.9 03:17:53 10° N 03:21:48 42° NNW 03:21:48 42° NNW visible
31 Mar 4.7 01:14:57 10° NE 01:15:57 13° ENE 01:15:57 13° ENE visible
31 Mar 2.8 02:53:10 10° NNE 02:57:02 49° N 02:57:02 49° N visible
31 Mar 4.0 04:34:50 10° NNW 04:37:28 14° NW 04:38:07 14° WNW visible
01 Apr 3.1 02:28:36 10° NNE 02:32:14 43° NE 02:32:14 43° NE visible
01 Apr 3.6 04:09:21 10° NNW 04:13:13 21° WNW 04:13:20 21° WNW visible
